Russell, KS

10:46 AM CDT on July 23, 2017 (GMT -0500)
Russell Municipal

Weather History for KRSL - August, 2013

Change the Weather History Date:

Wednesday, August 28, 2013

  Actual Average Record
Temperature  
Mean Temperature 78 °F -  
Max Temperature 91 °F 87 °F 108 °F (1984)
Min Temperature 66 °F 62 °F 49 °F (1976)
Cooling Degree Days 14    
Growing Degree Days 28 (Base 50)    
Moisture  
Dew Point 65 °F    
Average Humidity 61    
Maximum Humidity 90    
Minimum Humidity 36    
Precipitation  
Precipitation 0.00 in - - ()
Sea Level Pressure  
Sea Level Pressure 29.96 in    
Wind  
Wind Speed 12 mph (South)    
Max Wind Speed 16 mph    
Max Gust Speed 20 mph    
Visibility 10 miles    
Events      
Averages and records for this station are not official NWS values.
T = Trace of Precipitation, MM = Missing Value Source: NWS Daily Summary

Daily Weather History Graph

Daily Weather History Graph

Search for Another Location

Airport or City:

Trip Planner

Search our weather history database for the weather conditions in past years. The results will help you decide how hot, cold, wet, or windy it might be!

Date:

Astronomy

Aug. 28, 2013 Rise Set
Actual Time 7:00 AM CDT 8:11 PM CDT
Civil Twilight 6:33 AM CDT 8:38 PM CDT
Nautical Twilight 6:00 AM CDT 9:11 PM CDT
Astronomical Twilight 5:26 AM CDT 9:45 PM CDT
Moon 12:11 AM CDT (8/28) 2:48 PM CDT (8/28)
Length of Visible Light 14h 05m
Length of Day
13h 10m
Waning Gibbous, 47% of the Moon is Illuminated
Aug 28
Waning Gibbous
Sep 5
New
Sep 12
First Quarter
Sep 19
Full
Sep 26
Last Quarter

Hourly Weather History & Observations

Time (CDT) Temp. Heat Index Dew Point Humidity Pressure Visibility Wind Dir Wind Speed Gust Speed Precip Events Conditions
12:53 AM 75.0 °F - 61.0 °F 62% 29.94 in 10.0 mi South 15.0 mph - N/A   Clear
1:53 AM 73.9 °F - 63.0 °F 68% 29.94 in 10.0 mi South 16.1 mph - N/A   Clear
2:53 AM 73.0 °F - 64.0 °F 73% 29.94 in 10.0 mi SSW 13.8 mph - N/A   Clear
3:53 AM 71.1 °F - 64.0 °F 78% 29.95 in 10.0 mi SSW 11.5 mph - N/A   Clear
4:53 AM 70.0 °F - 64.0 °F 81% 29.95 in 10.0 mi SSW 11.5 mph - N/A   Clear
5:53 AM 66.9 °F - 64.0 °F 90% 29.95 in 10.0 mi SSW 8.1 mph - N/A   Clear
6:53 AM 68.0 °F - 64.0 °F 87% 29.96 in 10.0 mi SSW 8.1 mph - N/A   Clear
7:53 AM 71.1 °F - 64.9 °F 81% 29.96 in 10.0 mi SSW 8.1 mph - N/A   Clear
8:53 AM 75.9 °F - 66.9 °F 74% 29.97 in 10.0 mi SSW 8.1 mph - N/A   Clear
9:53 AM 81.0 °F 83.8 °F 68.0 °F 65% 29.98 in 10.0 mi SSW 8.1 mph - N/A   Clear
10:53 AM 82.9 °F 85.8 °F 68.0 °F 60% 29.98 in 10.0 mi South 8.1 mph - N/A   Clear
11:53 AM 84.9 °F 88.2 °F 68.0 °F 57% 29.99 in 10.0 mi SSE 12.7 mph - N/A   Clear
12:53 PM 88.0 °F 91.4 °F 68.0 °F 51% 29.98 in 10.0 mi South 10.4 mph - N/A   Clear
1:53 PM 88.0 °F 89.6 °F 64.9 °F 46% 29.97 in 10.0 mi SSW 9.2 mph - N/A   Clear
2:53 PM 90.0 °F 92.4 °F 66.0 °F 45% 29.96 in 10.0 mi South 11.5 mph - N/A   Clear
3:53 PM 90.0 °F 91.3 °F 64.0 °F 42% 29.94 in 10.0 mi South 9.2 mph 16.1 mph N/A   Clear
4:53 PM 91.9 °F 93.3 °F 64.0 °F 39% 29.93 in 10.0 mi SE 15.0 mph 19.6 mph N/A   Clear
5:53 PM 91.0 °F 90.9 °F 61.0 °F 36% 29.93 in 10.0 mi SSE 13.8 mph - N/A   Clear
6:53 PM 90.0 °F 90.3 °F 62.1 °F 39% 29.93 in 10.0 mi SE 11.5 mph - N/A   Clear
7:53 PM 86.0 °F 87.6 °F 64.9 °F 49% 29.94 in 10.0 mi SE 8.1 mph - N/A   Clear
8:53 PM 81.0 °F 82.7 °F 64.9 °F 58% 29.95 in 10.0 mi SE 8.1 mph - N/A   Clear
9:53 PM 79.0 °F - 64.9 °F 62% 29.96 in 10.0 mi SE 10.4 mph - N/A   Clear
10:53 PM 79.0 °F - 66.0 °F 64% 29.96 in 10.0 mi SSE 10.4 mph - N/A   Clear
11:53 PM 78.1 °F - 66.0 °F 66% 29.96 in 10.0 mi SSE 11.5 mph - N/A   Clear